| time (UTC) | temp F | wind direction | speed MPH | gust MPH | rain 1hr in | rain 24hr in | rain mn in | humidity % | barometer mb |
| 20260906143003 | 68 | 47 | 1.0 | 6.0 | 0.00 | 0.00 | 0.00 | 93 | 1020.7 |
| 20260906142503 | 68 | 49 | 1.0 | 5.0 | 0.00 | 0.00 | 0.00 | 94 | 1020.8 |
| 20260906142003 | 67 | 57 | 1.0 | 5.0 | 0.00 | 0.00 | 0.00 | 95 | 1020.8 |
| 20260906141503 | 67 | 45 | 1.0 | 5.0 | 0.00 | 0.00 | 0.00 | 96 | 1020.8 |
| 20260906141003 | 66 | 38 | 1.0 | 5.0 | 0.00 | 0.00 | 0.00 | 97 | 1020.9 |
| 20260906140503 | 66 | 50 | 2.0 | 7.0 | 0.00 | 0.00 | 0.00 | 96 | 1020.8 |
| 20260906140024 | 66 | 46 | 2.0 | 7.0 | 0.00 | 0.00 | 0.00 | 96 | 1020.8 |
| 20260906135503 | 65 | 34 | 2.0 | 6.0 | 0.00 | 0.00 | 0.00 | 97 | 1020.7 |
| 20260906135024 | 65 | 31 | 2.0 | 6.0 | 0.00 | 0.00 | 0.00 | 97 | 1020.7 |
| 20260906134503 | 65 | 36 | 2.0 | 6.0 | 0.00 | 0.00 | 0.00 | 96 | 1020.8 |
| 20260906134003 | 65 | 44 | 2.0 | 6.0 | 0.00 | 0.00 | 0.00 | 96 | 1020.8 |
| 20260906133503 | 65 | 42 | 2.0 | 6.0 | 0.00 | 0.00 | 0.00 | 97 | 1020.8 |
| 20260906133024 | 64 | 52 | 2.0 | 5.0 | 0.00 | 0.00 | 0.00 | 96 | 1020.7 |
| 20260906132504 | 64 | 60 | 1.0 | 5.0 | 0.00 | 0.00 | 0.00 | 96 | 1020.7 |
| 20260906132027 | 64 | 52 | 1.0 | 4.0 | 0.00 | 0.00 | 0.00 | 96 | 1020.7 |
| 20260906131503 | 64 | 50 | 1.0 | 5.0 | 0.00 | 0.00 | 0.00 | 96 | 1020.7 |
| 20260906131003 | 64 | 40 | 2.0 | 7.0 | 0.00 | 0.00 | 0.00 | 96 | 1020.5 |
| 20260906130524 | 64 | 42 | 3.0 | 7.0 | 0.00 | 0.00 | 0.00 | 95 | 1020.6 |
| 20260906130024 | 64 | 43 | 4.0 | 8.0 | 0.00 | 0.00 | 0.00 | 95 | 1020.5 |
| 20260906125503 | 63 | 44 | 4.0 | 8.0 | 0.00 | 0.00 | 0.00 | 94 | 1020.5 |
| 20260906125004 | 63 | 44 | 4.0 | 8.0 | 0.00 | 0.00 | 0.00 | 94 | 1020.5 |
| 20260906124503 | 63 | 41 | 3.0 | 8.0 | 0.00 | 0.00 | 0.00 | 94 | 1020.6 |
| 20260906124025 | 63 | 44 | 4.0 | 7.0 | 0.00 | 0.00 | 0.00 | 94 | 1020.6 |
| 20260906123503 | 63 | 46 | 4.0 | 7.0 | 0.00 | 0.00 | 0.00 | 94 | 1020.5 |
| 20260906123003 | 62 | 44 | 2.0 | 6.0 | 0.00 | 0.00 | 0.00 | 94 | 1020.4 |
| 20260906122503 | 62 | 43 | 1.0 | 4.0 | 0.00 | 0.00 | 0.00 | 95 | 1020.4 |
| 20260906122004 | 62 | 43 | 0.0 | 4.0 | 0.00 | 0.00 | 0.00 | 95 | 1020.5 |
| 20260906121503 | 62 | 40 | 1.0 | 5.0 | 0.00 | 0.00 | 0.00 | 95 | 1020.4 |
| 20260906121005 | 61 | 37 | 1.0 | 5.0 | 0.00 | 0.00 | 0.00 | 95 | 1020.3 |
| 20260906120505 | 61 | 35 | 1.0 | 4.0 | 0.00 | 0.00 | 0.00 | 95 | 1020.1 |
| 20260906120004 | 61 | 34 | 1.0 | 4.0 | 0.00 | 0.00 | 0.00 | 95 | 1020.0 |
| 20260906115504 | 61 | 32 | 0.0 | 4.0 | 0.00 | 0.00 | 0.00 | 95 | 1019.9 |
| 20260906115004 | 61 | 34 | 1.0 | 4.0 | 0.00 | 0.00 | 0.00 | 94 | 1019.9 |
| 20260906114524 | 61 | 36 | 1.0 | 5.0 | 0.00 | 0.00 | 0.00 | 94 | 1019.8 |
| 20260906114003 | 61 | 37 | 1.0 | 5.0 | 0.00 | 0.00 | 0.00 | 94 | 1019.8 |
| 20260906113503 | 61 | 35 | 1.0 | 4.0 | 0.00 | 0.00 | 0.00 | 94 | 1019.7 |
| 20260906113004 | 61 | 30 | 1.0 | 4.0 | 0.00 | 0.00 | 0.00 | 94 | 1019.6 |
| 20260906112503 | 61 | 32 | 1.0 | 4.0 | 0.00 | 0.00 | 0.00 | 94 | 1019.5 |
| 20260906112003 | 61 | 40 | 1.0 | 4.0 | 0.00 | 0.00 | 0.00 | 94 | 1019.5 |
| 20260906111504 | 61 | 41 | 2.0 | 5.0 | 0.00 | 0.00 | 0.00 | 93 | 1019.4 |
| 20260906111003 | 61 | 34 | 2.0 | 5.0 | 0.00 | 0.00 | 0.00 | 93 | 1019.4 |
| 20260906110503 | 61 | 30 | 1.0 | 4.0 | 0.00 | 0.00 | 0.00 | 93 | 1019.4 |
| 20260906110006 | 61 | 29 | 1.0 | 5.0 | 0.00 | 0.00 | 0.00 | 93 | 1019.3 |
| 20260906105524 | 61 | 27 | 1.0 | 5.0 | 0.00 | 0.00 | 0.00 | 93 | 1019.3 |
| 20260906105003 | 61 | 19 | 1.0 | 4.0 | 0.00 | 0.00 | 0.00 | 93 | 1019.3 |
| 20260906104503 | 61 | 23 | 0.0 | 3.0 | 0.00 | 0.00 | 0.00 | 93 | 1019.3 |
| 20260906104024 | 61 | 25 | 1.0 | 4.0 | 0.00 | 0.00 | 0.00 | 92 | 1019.3 |
| 20260906103506 | 61 | 25 | 1.0 | 4.0 | 0.00 | 0.00 | 0.00 | 92 | 1019.3 |
| 20260906103003 | 61 | 32 | 0.0 | 3.0 | 0.00 | 0.00 | 0.00 | 92 | 1019.3 |
| 20260906102504 | 61 | 46 | 0.0 | 4.0 | 0.00 | 0.00 | 0.00 | 92 | 1019.2 |
| 20260906102024 | 61 | 59 | 0.0 | 4.0 | 0.00 | 0.00 | 0.00 | 92 | 1019.2 |
| 20260906101524 | 61 | 0 | 0.0 | 0.0 | 0.00 | 0.00 | 0.00 | 92 | 1019.2 |
| 20260906101006 | 62 | 0 | 0.0 | 0.0 | 0.00 | 0.00 | 0.00 | 92 | 1019.2 |
| 20260906100503 | 62 | 0 | 0.0 | 0.0 | 0.00 | 0.00 | 0.00 | 91 | 1019.2 |
| 20260906100024 | 62 | 0 | 0.0 | 0.0 | 0.00 | 0.00 | 0.00 | 91 | 1019.2 |
| 20260906095504 | 62 | 0 | 0.0 | 0.0 | 0.00 | 0.00 | 0.00 | 91 | 1019.2 |
| 20260906095006 | 62 | 61 | 0.0 | 2.0 | 0.00 | 0.00 | 0.00 | 91 | 1019.2 |
| 20260906094506 | 62 | 42 | 1.0 | 5.0 | 0.00 | 0.00 | 0.00 | 91 | 1019.2 |
| 20260906094003 | 62 | 40 | 1.0 | 5.0 | 0.00 | 0.00 | 0.00 | 91 | 1019.2 |
| 20260906093524 | 62 | 54 | 1.0 | 4.0 | 0.00 | 0.00 | 0.00 | 91 | 1019.2 |
| 20260906093003 | 62 | 45 | 1.0 | 5.0 | 0.00 | 0.00 | 0.00 | 91 | 1019.1 |
| 20260906092503 | 62 | 43 | 2.0 | 5.0 | 0.00 | 0.00 | 0.00 | 91 | 1019.0 |
| 20260906092026 | 62 | 50 | 1.0 | 5.0 | 0.00 | 0.00 | 0.00 | 91 | 1019.1 |
| 20260906091503 | 62 | 43 | 1.0 | 4.0 | 0.00 | 0.00 | 0.00 | 92 | 1019.1 |
| 20260906091003 | 62 | 27 | 0.0 | 4.0 | 0.00 | 0.00 | 0.00 | 92 | 1019.2 |
| 20260906090524 | 62 | 44 | 0.0 | 2.0 | 0.00 | 0.00 | 0.00 | 92 | 1019.2 |
| 20260906090003 | 62 | 44 | 0.0 | 2.0 | 0.00 | 0.00 | 0.00 | 92 | 1019.3 |
| 20260906085503 | 62 | 43 | 0.0 | 1.0 | 0.00 | 0.00 | 0.00 | 92 | 1019.2 |
| 20260906085003 | 62 | 0 | 0.0 | 0.0 | 0.00 | 0.00 | 0.00 | 92 | 1019.3 |
| 20260906084503 | 62 | 0 | 0.0 | 0.0 | 0.00 | 0.00 | 0.00 | 92 | 1019.2 |
| 20260906084003 | 62 | 43 | 0.0 | 1.0 | 0.00 | 0.00 | 0.00 | 92 | 1019.1 |
| 20260906083503 | 62 | 43 | 0.0 | 1.0 | 0.00 | 0.00 | 0.00 | 92 | 1019.0 |
| 20260906083024 | 62 | 0 | 0.0 | 0.0 | 0.00 | 0.00 | 0.00 | 92 | 1019.1 |
| 20260906082524 | 62 | 44 | 0.0 | 2.0 | 0.00 | 0.00 | 0.00 | 92 | 1019.1 |
| 20260906082003 | 62 | 44 | 0.0 | 2.0 | 0.00 | 0.00 | 0.00 | 92 | 1019.1 |
| 20260906081503 | 62 | 0 | 0.0 | 0.0 | 0.00 | 0.00 | 0.00 | 92 | 1019.1 |
| 20260906081003 | 62 | 38 | 0.0 | 2.0 | 0.00 | 0.00 | 0.00 | 93 | 1019.2 |
| 20260906080504 | 62 | 38 | 0.0 | 2.0 | 0.00 | 0.00 | 0.00 | 93 | 1019.2 |
| 20260906080025 | 62 | 0 | 0.0 | 0.0 | 0.00 | 0.00 | 0.00 | 93 | 1019.2 |
| 20260906075504 | 62 | 0 | 0.0 | 0.0 | 0.00 | 0.00 | 0.00 | 93 | 1019.2 |
| 20260906075003 | 62 | 0 | 0.0 | 0.0 | 0.00 | 0.00 | 0.00 | 93 | 1019.2 |
| 20260906074505 | 62 | 0 | 0.0 | 0.0 | 0.00 | 0.00 | 0.00 | 93 | 1019.1 |
| 20260906074024 | 62 | 0 | 0.0 | 0.0 | 0.00 | 0.00 | 0.00 | 93 | 1019.1 |
| 20260906073504 | 62 | 0 | 0.0 | 0.0 | 0.00 | 0.00 | 0.00 | 93 | 1018.9 |
| 20260906073005 | 62 | 0 | 0.0 | 0.0 | 0.00 | 0.00 | 0.00 | 93 | 1018.9 |
| 20260906072503 | 62 | 0 | 0.0 | 0.0 | 0.00 | 0.00 | 0.00 | 93 | 1018.9 |
| 20260906072025 | 62 | 0 | 0.0 | 0.0 | 0.00 | 0.00 | 0.00 | 94 | 1018.9 |
| 20260906071505 | 62 | 0 | 0.0 | 0.0 | 0.00 | 0.00 | 0.00 | 94 | 1019.0 |
| 20260906071024 | 62 | 0 | 0.0 | 0.0 | 0.00 | 0.00 | 0.00 | 94 | 1019.1 |
| 20260906070504 | 62 | 0 | 0.0 | 0.0 | 0.00 | 0.00 | 0.00 | 95 | 1019.0 |
| 20260906070004 | 62 | 0 | 0.0 | 0.0 | 0.00 | 0.00 | 0.00 | 95 | 1019.0 |
| 20260906065525 | 62 | 0 | 0.0 | 0.0 | 0.00 | 0.00 | 0.00 | 95 | 1019.0 |
| 20260906065003 | 62 | 0 | 0.0 | 0.0 | 0.00 | 0.00 | 0.00 | 95 | 1019.1 |
| 20260906064504 | 62 | 0 | 0.0 | 0.0 | 0.00 | 0.00 | 0.00 | 95 | 1019.1 |
| 20260906064003 | 63 | 0 | 0.0 | 0.0 | 0.00 | 0.00 | 0.00 | 95 | 1019.2 |
| 20260906063525 | 63 | 0 | 0.0 | 0.0 | 0.00 | 0.00 | 0.00 | 95 | 1019.3 |
| 20260906063004 | 63 | 0 | 0.0 | 0.0 | 0.00 | 0.00 | 0.00 | 95 | 1019.1 |
| 20260906062503 | 63 | 0 | 0.0 | 0.0 | 0.00 | 0.00 | 0.00 | 95 | 1019.1 |
| 20260906062003 | 63 | 0 | 0.0 | 0.0 | 0.00 | 0.00 | 0.00 | 95 | 1019.2 |
| 20260906061506 | 63 | 0 | 0.0 | 0.0 | 0.00 | 0.00 | 0.00 | 95 | 1019.1 |
| 20260906061005 | 63 | 0 | 0.0 | 0.0 | 0.00 | 0.00 | 0.00 | 95 | 1019.2 |
| 20260906060524 | 63 | 0 | 0.0 | 0.0 | 0.00 | 0.00 | 0.00 | 95 | 1019.1 |
| 20260906060003 | 63 | 0 | 0.0 | 0.0 | 0.00 | 0.00 | 0.00 | 95 | 1019.1 |
| 20260906055525 | 64 | 0 | 0.0 | 0.0 | 0.00 | 0.00 | 0.00 | 95 | 1019.1 |
| 20260906055024 | 64 | 0 | 0.0 | 0.0 | 0.00 | 0.00 | 0.00 | 95 | 1019.0 |
| 20260906054524 | 64 | 0 | 0.0 | 0.0 | 0.00 | 0.00 | 0.00 | 95 | 1019.1 |
| 20260906054003 | 64 | 0 | 0.0 | 0.0 | 0.00 | 0.00 | 0.00 | 95 | 1019.0 |
| 20260906053524 | 64 | 0 | 0.0 | 0.0 | 0.00 | 0.00 | 0.00 | 95 | 1019.0 |
| 20260906053006 | 64 | 0 | 0.0 | 0.0 | 0.00 | 0.00 | 0.00 | 95 | 1019.1 |
| 20260906052503 | 64 | 0 | 0.0 | 0.0 | 0.00 | 0.00 | 0.00 | 95 | 1019.1 |
| 20260906052003 | 64 | 0 | 0.0 | 0.0 | 0.00 | 0.00 | 0.00 | 94 | 1019.1 |
| 20260906051524 | 64 | 0 | 0.0 | 0.0 | 0.00 | 0.00 | 0.00 | 94 | 1019.1 |
| 20260906051003 | 64 | 0 | 0.0 | 0.0 | 0.00 | 0.00 | 0.00 | 94 | 1019.1 |
| 20260906050503 | 64 | 0 | 0.0 | 0.0 | 0.00 | 0.00 | 0.00 | 94 | 1019.1 |
| 20260906050003 | 65 | 0 | 0.0 | 0.0 | 0.00 | 0.00 | 0.00 | 93 | 1019.0 |
| 20260906045505 | 65 | 0 | 0.0 | 0.0 | 0.00 | 0.00 | 0.00 | 93 | 1018.9 |
| 20260906045004 | 65 | 0 | 0.0 | 0.0 | 0.00 | 0.00 | 0.00 | 93 | 1018.9 |
| 20260906044503 | 65 | 0 | 0.0 | 0.0 | 0.00 | 0.00 | 0.00 | 93 | 1018.8 |
| 20260906044005 | 66 | 0 | 0.0 | 0.0 | 0.00 | 0.00 | 0.00 | 92 | 1018.8 |
| 20260906043524 | 66 | 0 | 0.0 | 0.0 | 0.00 | 0.00 | 0.00 | 92 | 1018.7 |
| 20260906043003 | 66 | 0 | 0.0 | 0.0 | 0.00 | 0.00 | 0.00 | 92 | 1018.7 |
| 20260906042524 | 66 | 0 | 0.0 | 0.0 | 0.00 | 0.00 | 0.00 | 92 | 1018.5 |
| 20260906042006 | 66 | 35 | 0.0 | 2.0 | 0.00 | 0.00 | 0.00 | 91 | 1018.5 |
| 20260906041503 | 66 | 31 | 0.0 | 2.0 | 0.00 | 0.00 | 0.00 | 92 | 1018.5 |
| 20260906041004 | 66 | 22 | 0.0 | 2.0 | 0.00 | 0.00 | 0.00 | 92 | 1018.5 |
| 20260906040524 | 67 | 21 | 0.0 | 4.0 | 0.00 | 0.00 | 0.00 | 92 | 1018.4 |
| 20260906040003 | 67 | 35 | 0.0 | 4.0 | 0.00 | 0.00 | 0.00 | 92 | 1018.4 |
| 20260906035503 | 67 | 46 | 1.0 | 5.0 | 0.00 | 0.00 | 0.00 | 92 | 1018.5 |
| 20260906035005 | 67 | 51 | 1.0 | 5.0 | 0.00 | 0.00 | 0.00 | 92 | 1018.5 |
| 20260906034503 | 67 | 45 | 2.0 | 6.0 | 0.00 | 0.00 | 0.00 | 92 | 1018.3 |
| 20260906034003 | 67 | 42 | 2.0 | 6.0 | 0.00 | 0.00 | 0.00 | 93 | 1018.4 |
| 20260906033503 | 67 | 41 | 1.0 | 4.0 | 0.00 | 0.00 | 0.00 | 94 | 1018.2 |
| 20260906033005 | 67 | 38 | 0.0 | 3.0 | 0.00 | 0.00 | 0.00 | 94 | 1018.1 |
| 20260906032526 | 67 | 0 | 0.0 | 0.0 | 0.00 | 0.00 | 0.00 | 94 | 1018.1 |
| 20260906032024 | 67 | 0 | 0.0 | 0.0 | 0.00 | 0.00 | 0.00 | 94 | 1018.1 |
| 20260906031524 | 67 | 0 | 0.0 | 0.0 | 0.00 | 0.00 | 0.00 | 93 | 1018.0 |
| 20260906031003 | 68 | 0 | 0.0 | 0.0 | 0.00 | 0.00 | 0.00 | 93 | 1018.0 |
| 20260906030504 | 68 | 0 | 0.0 | 0.0 | 0.00 | 0.00 | 0.00 | 93 | 1018.2 |
| 20260906030004 | 68 | 0 | 0.0 | 0.0 | 0.00 | 0.00 | 0.00 | 93 | 1018.2 |
| 20260906025503 | 68 | 45 | 0.0 | 1.0 | 0.00 | 0.00 | 0.00 | 92 | 1018.2 |
| 20260906025025 | 68 | 45 | 0.0 | 1.0 | 0.00 | 0.00 | 0.00 | 92 | 1018.1 |
| 20260906024506 | 68 | 42 | 1.0 | 5.0 | 0.00 | 0.00 | 0.00 | 92 | 1018.1 |
| 20260906024003 | 68 | 39 | 1.0 | 5.0 | 0.00 | 0.00 | 0.00 | 92 | 1018.0 |
| 20260906023524 | 68 | 35 | 0.0 | 4.0 | 0.00 | 0.00 | 0.00 | 92 | 1018.0 |
| 20260906023003 | 68 | 28 | 1.0 | 4.0 | 0.00 | 0.00 | 0.00 | 92 | 1017.9 |
| 20260906022503 | 69 | 36 | 1.0 | 4.0 | 0.00 | 0.00 | 0.00 | 92 | 1017.8 |
| 20260906022004 | 69 | 46 | 1.0 | 5.0 | 0.00 | 0.00 | 0.00 | 91 | 1017.8 |
| 20260906021524 | 69 | 48 | 1.0 | 5.0 | 0.00 | 0.00 | 0.00 | 91 | 1017.7 |
| 20260906021024 | 69 | 42 | 1.0 | 4.0 | 0.00 | 0.00 | 0.00 | 91 | 1017.7 |
| 20260906020503 | 69 | 48 | 1.0 | 5.0 | 0.00 | 0.00 | 0.00 | 91 | 1017.6 |
| 20260906020024 | 69 | 54 | 2.0 | 5.0 | 0.00 | 0.00 | 0.00 | 91 | 1017.6 |
| 20260906015503 | 69 | 51 | 2.0 | 6.0 | 0.00 | 0.00 | 0.00 | 91 | 1017.5 |
| 20260906015028 | 69 | 50 | 2.0 | 6.0 | 0.00 | 0.00 | 0.00 | 91 | 1017.4 |
| 20260906014503 | 69 | 48 | 2.0 | 6.0 | 0.00 | 0.00 | 0.00 | 91 | 1017.4 |
| 20260906014003 | 70 | 43 | 2.0 | 7.0 | 0.00 | 0.00 | 0.00 | 91 | 1017.3 |
| 20260906013527 | 70 | 44 | 1.0 | 7.0 | 0.00 | 0.00 | 0.00 | 91 | 1017.2 |
| 20260906013003 | 70 | 42 | 1.0 | 5.0 | 0.00 | 0.00 | 0.00 | 91 | 1017.2 |
| 20260906012524 | 70 | 44 | 1.0 | 5.0 | 0.00 | 0.00 | 0.00 | 90 | 1017.2 |
| 20260906012027 | 70 | 48 | 1.0 | 5.0 | 0.00 | 0.00 | 0.00 | 90 | 1017.2 |
| 20260906011503 | 70 | 50 | 1.0 | 5.0 | 0.00 | 0.00 | 0.00 | 90 | 1017.3 |
| 20260906011024 | 71 | 50 | 0.0 | 5.0 | 0.00 | 0.00 | 0.00 | 90 | 1017.3 |
| 20260906010503 | 71 | 50 | 0.0 | 2.0 | 0.00 | 0.00 | 0.00 | 89 | 1017.3 |
| 20260906010003 | 71 | 50 | 0.0 | 4.0 | 0.00 | 0.00 | 0.00 | 89 | 1017.3 |
| 20260906005503 | 72 | 50 | 0.0 | 4.0 | 0.00 | 0.00 | 0.00 | 89 | 1017.3 |
| 20260906005003 | 72 | 50 | 0.0 | 4.0 | 0.00 | 0.00 | 0.00 | 89 | 1017.4 |
| 20260906004524 | 72 | 53 | 0.0 | 1.0 | 0.00 | 0.00 | 0.00 | 88 | 1017.4 |
| 20260906004003 | 72 | 53 | 0.0 | 4.0 | 0.00 | 0.00 | 0.00 | 88 | 1017.4 |
| 20260906003503 | 73 | 56 | 1.0 | 4.0 | 0.00 | 0.00 | 0.00 | 87 | 1017.4 |
| 20260906003004 | 73 | 57 | 2.0 | 6.0 | 0.00 | 0.00 | 0.00 | 87 | 1017.5 |
| 20260906002524 | 73 | 58 | 3.0 | 6.0 | 0.00 | 0.00 | 0.00 | 86 | 1017.4 |
| 20260906002024 | 73 | 55 | 2.0 | 6.0 | 0.00 | 0.00 | 0.00 | 86 | 1017.5 |
| 20260906001524 | 74 | 54 | 2.0 | 6.0 | 0.00 | 0.00 | 0.00 | 86 | 1017.5 |
| 20260906001003 | 74 | 44 | 3.0 | 7.0 | 0.00 | 0.00 | 0.00 | 86 | 1017.5 |
| 20260906000503 | 74 | 37 | 3.0 | 7.0 | 0.00 | 0.00 | 0.00 | 85 | 1017.4 |
| 20260906000003 | 74 | 42 | 4.0 | 10.0 | 0.00 | 0.00 | 0.00 | 85 | 1017.4 |
| 20260905235524 | 74 | 43 | 5.0 | 10.0 | 0.00 | 0.00 | 0.00 | 85 | 1017.4 |
| 20260905235024 | 74 | 44 | 4.0 | 8.0 | 0.00 | 0.00 | 0.00 | 85 | 1017.4 |
| 20260905234504 | 74 | 45 | 3.0 | 8.0 | 0.00 | 0.00 | 0.00 | 85 | 1017.4 |
| 20260905234024 | 74 | 40 | 3.0 | 8.0 | 0.00 | 0.00 | 0.00 | 85 | 1017.5 |
| 20260905233524 | 74 | 41 | 3.0 | 9.0 | 0.00 | 0.00 | 0.00 | 84 | 1017.5 |
| 20260905233024 | 74 | 51 | 4.0 | 9.0 | 0.00 | 0.00 | 0.00 | 84 | 1017.4 |
| 20260905232503 | 74 | 56 | 5.0 | 9.0 | 0.00 | 0.00 | 0.00 | 84 | 1017.4 |
| 20260905232024 | 75 | 53 | 5.0 | 9.0 | 0.00 | 0.00 | 0.00 | 83 | 1017.4 |
| 20260905231503 | 75 | 46 | 6.0 | 11.0 | 0.00 | 0.00 | 0.00 | 82 | 1017.4 |
| 20260905231024 | 75 | 41 | 6.0 | 11.0 | 0.00 | 0.00 | 0.00 | 83 | 1017.4 |
| 20260905230503 | 76 | 41 | 5.0 | 10.0 | 0.00 | 0.00 | 0.00 | 82 | 1017.4 |
| 20260905230024 | 76 | 42 | 5.0 | 11.0 | 0.00 | 0.00 | 0.00 | 81 | 1017.4 |
| 20260905225524 | 76 | 44 | 4.0 | 11.0 | 0.00 | 0.00 | 0.00 | 80 | 1017.4 |
| 20260905225024 | 77 | 51 | 3.0 | 9.0 | 0.00 | 0.00 | 0.00 | 80 | 1017.3 |
| 20260905224503 | 76 | 46 | 2.0 | 7.0 | 0.00 | 0.00 | 0.00 | 82 | 1017.2 |
| 20260905224024 | 76 | 36 | 1.0 | 6.0 | 0.00 | 0.00 | 0.00 | 82 | 1017.3 |
| 20260905223524 | 76 | 37 | 2.0 | 6.0 | 0.00 | 0.00 | 0.00 | 82 | 1017.3 |
| 20260905223025 | 76 | 42 | 2.0 | 7.0 | 0.00 | 0.00 | 0.00 | 82 | 1017.2 |
| 20260905222524 | 76 | 51 | 3.0 | 9.0 | 0.00 | 0.00 | 0.00 | 81 | 1017.1 |
| 20260905222003 | 76 | 48 | 6.0 | 12.0 | 0.00 | 0.00 | 0.00 | 80 | 1017.0 |
| 20260905221503 | 77 | 45 | 6.0 | 12.0 | 0.00 | 0.00 | 0.00 | 78 | 1016.9 |
| 20260905221024 | 77 | 42 | 4.0 | 11.0 | 0.00 | 0.00 | 0.00 | 79 | 1016.9 |
| 20260905220525 | 77 | 42 | 5.0 | 10.0 | 0.00 | 0.00 | 0.00 | 80 | 1016.8 |
| 20260905220003 | 77 | 43 | 6.0 | 11.0 | 0.00 | 0.00 | 0.00 | 81 | 1016.9 |
| 20260905215503 | 76 | 46 | 5.0 | 9.0 | 0.00 | 0.00 | 0.00 | 80 | 1016.8 |
| 20260905215003 | 77 | 51 | 5.0 | 10.0 | 0.00 | 0.00 | 0.00 | 80 | 1016.8 |
| 20260905214524 | 77 | 55 | 5.0 | 11.0 | 0.00 | 0.00 | 0.00 | 80 | 1016.8 |
| 20260905214004 | 78 | 48 | 5.0 | 11.0 | 0.00 | 0.00 | 0.00 | 78 | 1016.6 |
| 20260905213503 | 78 | 42 | 5.0 | 10.0 | 0.00 | 0.00 | 0.00 | 78 | 1016.7 |
| 20260905213003 | 78 | 43 | 5.0 | 10.0 | 0.00 | 0.00 | 0.00 | 78 | 1016.6 |
| 20260905212503 | 78 | 42 | 6.0 | 10.0 | 0.00 | 0.00 | 0.00 | 78 | 1016.6 |
| 20260905212024 | 77 | 42 | 6.0 | 10.0 | 0.00 | 0.00 | 0.00 | 78 | 1016.7 |
| 20260905211524 | 78 | 46 | 5.0 | 9.0 | 0.00 | 0.00 | 0.00 | 78 | 1016.7 |
| 20260905211003 | 78 | 47 | 4.0 | 9.0 | 0.00 | 0.00 | 0.00 | 77 | 1016.7 |
| 20260905210526 | 78 | 44 | 4.0 | 8.0 | 0.00 | 0.00 | 0.00 | 79 | 1016.8 |
| 20260905210003 | 78 | 44 | 5.0 | 10.0 | 0.00 | 0.00 | 0.00 | 79 | 1016.8 |
| 20260905205524 | 78 | 44 | 5.0 | 10.0 | 0.00 | 0.00 | 0.00 | 79 | 1016.7 |
| 20260905205003 | 78 | 43 | 5.0 | 10.0 | 0.00 | 0.00 | 0.00 | 79 | 1016.7 |
| 20260905204524 | 78 | 51 | 5.0 | 10.0 | 0.00 | 0.00 | 0.00 | 78 | 1016.8 |
| 20260905204003 | 78 | 51 | 5.0 | 12.0 | 0.00 | 0.00 | 0.00 | 78 | 1016.8 |
| 20260905203503 | 78 | 46 | 5.0 | 12.0 | 0.00 | 0.00 | 0.00 | 78 | 1016.8 |
| 20260905203003 | 78 | 47 | 5.0 | 11.0 | 0.00 | 0.00 | 0.00 | 78 | 1016.9 |
| 20260905202503 | 78 | 44 | 6.0 | 11.0 | 0.00 | 0.00 | 0.00 | 79 | 1016.8 |
| 20260905202003 | 78 | 44 | 6.0 | 10.0 | 0.00 | 0.00 | 0.00 | 79 | 1016.9 |
| 20260905201525 | 78 | 46 | 4.0 | 10.0 | 0.00 | 0.00 | 0.00 | 79 | 1017.0 |
| 20260905201003 | 78 | 42 | 3.0 | 7.0 | 0.00 | 0.00 | 0.00 | 79 | 1017.0 |
| 20260905200503 | 78 | 37 | 3.0 | 8.0 | 0.00 | 0.00 | 0.00 | 81 | 1017.2 |
| 20260905200004 | 77 | 44 | 5.0 | 11.0 | 0.00 | 0.00 | 0.00 | 82 | 1017.2 |
| 20260905195503 | 76 | 45 | 5.0 | 11.0 | 0.00 | 0.00 | 0.00 | 81 | 1017.2 |
| 20260905195024 | 76 | 43 | 5.0 | 9.0 | 0.00 | 0.00 | 0.00 | 82 | 1017.1 |
| 20260905194524 | 76 | 46 | 5.0 | 9.0 | 0.00 | 0.00 | 0.00 | 82 | 1017.1 |
| 20260905194005 | 76 | 47 | 5.0 | 11.0 | 0.00 | 0.00 | 0.00 | 82 | 1017.1 |
| 20260905193503 | 76 | 46 | 5.0 | 11.0 | 0.00 | 0.00 | 0.00 | 82 | 1017.2 |
| 20260905193003 | 76 | 38 | 3.0 | 8.0 | 0.00 | 0.00 | 0.00 | 82 | 1017.1 |
| 20260905192504 | 76 | 42 | 4.0 | 9.0 | 0.00 | 0.00 | 0.00 | 83 | 1017.3 |
| 20260905192004 | 76 | 47 | 4.0 | 9.0 | 0.00 | 0.00 | 0.00 | 83 | 1017.2 |
| 20260905191506 | 76 | 52 | 2.0 | 6.0 | 0.00 | 0.00 | 0.00 | 83 | 1017.3 |
| 20260905191003 | 76 | 45 | 3.0 | 9.0 | 0.00 | 0.00 | 0.00 | 83 | 1017.3 |
| 20260905190503 | 76 | 46 | 5.0 | 12.0 | 0.00 | 0.00 | 0.00 | 83 | 1017.3 |
| 20260905190025 | 75 | 47 | 6.0 | 12.0 | 0.00 | 0.00 | 0.00 | 83 | 1017.2 |
| 20260905185504 | 76 | 47 | 6.0 | 11.0 | 0.00 | 0.00 | 0.00 | 83 | 1017.2 |
| 20260905185003 | 76 | 50 | 6.0 | 11.0 | 0.00 | 0.00 | 0.00 | 83 | 1017.2 |
| 20260905184503 | 76 | 51 | 7.0 | 11.0 | 0.00 | 0.00 | 0.00 | 83 | 1017.2 |
| 20260905184003 | 76 | 47 | 6.0 | 10.0 | 0.00 | 0.00 | 0.00 | 82 | 1017.2 |
| 20260905183504 | 76 | 42 | 6.0 | 11.0 | 0.00 | 0.00 | 0.00 | 83 | 1017.3 |
| 20260905183004 | 76 | 45 | 6.0 | 11.0 | 0.00 | 0.00 | 0.00 | 82 | 1017.2 |
| 20260905182504 | 76 | 47 | 6.0 | 12.0 | 0.00 | 0.00 | 0.00 | 82 | 1017.3 |
| 20260905182004 | 76 | 43 | 5.0 | 12.0 | 0.00 | 0.00 | 0.00 | 82 | 1017.4 |
| 20260905181503 | 76 | 43 | 4.0 | 11.0 | 0.00 | 0.00 | 0.00 | 83 | 1017.3 |
| 20260905181003 | 76 | 39 | 3.0 | 9.0 | 0.00 | 0.00 | 0.00 | 84 | 1017.3 |
| 20260905180524 | 76 | 36 | 3.0 | 7.0 | 0.00 | 0.00 | 0.00 | 83 | 1017.4 |
| 20260905180026 | 76 | 40 | 4.0 | 7.0 | 0.00 | 0.00 | 0.00 | 84 | 1017.4 |
| 20260905175524 | 76 | 16 | 3.0 | 7.0 | 0.00 | 0.00 | 0.00 | 83 | 1017.4 |
| 20260905175003 | 76 | 22 | 3.0 | 6.0 | 0.00 | 0.00 | 0.00 | 85 | 1017.4 |
| 20260905174503 | 75 | 50 | 3.0 | 7.0 | 0.00 | 0.00 | 0.00 | 85 | 1017.5 |
| 20260905174024 | 75 | 48 | 3.0 | 7.0 | 0.00 | 0.00 | 0.00 | 84 | 1017.5 |
| 20260905173503 | 75 | 35 | 2.0 | 6.0 | 0.00 | 0.00 | 0.00 | 84 | 1017.6 |
| 20260905173004 | 75 | 35 | 2.0 | 6.0 | 0.00 | 0.00 | 0.00 | 84 | 1017.6 |
| 20260905172528 | 76 | 38 | 2.0 | 7.0 | 0.00 | 0.00 | 0.00 | 83 | 1017.5 |
| 20260905172003 | 76 | 52 | 2.0 | 7.0 | 0.00 | 0.00 | 0.00 | 84 | 1017.5 |
| 20260905171524 | 76 | 56 | 1.0 | 7.0 | 0.00 | 0.00 | 0.00 | 84 | 1017.4 |
| 20260905171003 | 75 | 47 | 2.0 | 7.0 | 0.00 | 0.00 | 0.00 | 85 | 1017.4 |
| 20260905170505 | 75 | 46 | 3.0 | 7.0 | 0.00 | 0.00 | 0.00 | 85 | 1017.4 |
| 20260905170004 | 75 | 44 | 3.0 | 6.0 | 0.00 | 0.00 | 0.00 | 85 | 1017.5 |
| 20260905165506 | 74 | 47 | 3.0 | 7.0 | 0.00 | 0.00 | 0.00 | 86 | 1017.4 |
| 20260905165004 | 74 | 41 | 4.0 | 10.0 | 0.00 | 0.00 | 0.00 | 86 | 1017.4 |
| 20260905164506 | 74 | 39 | 4.0 | 10.0 | 0.00 | 0.00 | 0.00 | 86 | 1017.4 |
| 20260905164024 | 74 | 42 | 4.0 | 9.0 | 0.00 | 0.00 | 0.00 | 86 | 1017.4 |
| 20260905163524 | 74 | 39 | 4.0 | 10.0 | 0.00 | 0.00 | 0.00 | 87 | 1017.4 |
| 20260905163003 | 74 | 27 | 2.0 | 8.0 | 0.00 | 0.00 | 0.00 | 87 | 1017.3 |
| 20260905162503 | 73 | 34 | 2.0 | 7.0 | 0.00 | 0.00 | 0.00 | 89 | 1017.3 |
| 20260905162024 | 73 | 47 | 2.0 | 7.0 | 0.00 | 0.00 | 0.00 | 89 | 1017.5 |
| 20260905161504 | 73 | 49 | 3.0 | 8.0 | 0.00 | 0.00 | 0.00 | 90 | 1017.5 |
| 20260905161006 | 72 | 48 | 4.0 | 9.0 | 0.00 | 0.00 | 0.00 | 90 | 1017.5 |
| 20260905160524 | 73 | 46 | 4.0 | 9.0 | 0.00 | 0.00 | 0.00 | 90 | 1017.6 |
| 20260905160003 | 73 | 46 | 4.0 | 9.0 | 0.00 | 0.00 | 0.00 | 90 | 1017.5 |
| 20260905155503 | 73 | 46 | 5.0 | 9.0 | 0.00 | 0.00 | 0.00 | 90 | 1017.4 |
| 20260905155004 | 72 | 47 | 5.0 | 9.0 | 0.00 | 0.00 | 0.00 | 90 | 1017.3 |
| 20260905154503 | 72 | 45 | 5.0 | 9.0 | 0.00 | 0.00 | 0.00 | 90 | 1017.4 |
| 20260905154024 | 72 | 41 | 5.0 | 9.0 | 0.00 | 0.00 | 0.00 | 90 | 1017.4 |
| 20260905153504 | 73 | 44 | 5.0 | 11.0 | 0.00 | 0.00 | 0.00 | 89 | 1017.4 |
| 20260905153024 | 73 | 44 | 4.0 | 11.0 | 0.00 | 0.00 | 0.00 | 88 | 1017.4 |
| 20260905152524 | 73 | 45 | 5.0 | 16.0 | 0.00 | 0.00 | 0.00 | 89 | 1017.4 |
| 20260905152003 | 74 | 47 | 6.0 | 16.0 | 0.00 | 0.00 | 0.00 | 87 | 1017.1 |
| 20260905151503 | 74 | 50 | 5.0 | 10.0 | 0.00 | 0.00 | 0.00 | 87 | 1017.1 |
| 20260905151003 | 74 | 48 | 5.0 | 11.0 | 0.00 | 0.01 | 0.00 | 88 | 1017.0 |
| 20260905150524 | 74 | 47 | 6.0 | 11.0 | 0.00 | 0.05 | 0.00 | 88 | 1017.0 |
| 20260905150005 | 74 | 43 | 5.0 | 11.0 | 0.00 | 0.18 | 0.00 | 87 | 1017.0 |
| 20260905145525 | 74 | 40 | 5.0 | 9.0 | 0.00 | 0.19 | 0.00 | 87 | 1016.8 |
| 20260905145025 | 74 | 44 | 5.0 | 9.0 | 0.00 | 0.19 | 0.00 | 88 | 1016.7 |
| 20260905144503 | 74 | 47 | 4.0 | 10.0 | 0.00 | 0.19 | 0.00 | 88 | 1016.7 |
| 20260905144003 | 74 | 49 | 5.0 | 10.0 | 0.00 | 0.19 | 0.00 | 90 | 1016.7 |
| 20260905143503 | 73 | 44 | 6.0 | 10.0 | 0.00 | 0.19 | 0.00 | 89 | 1016.7 |